QPF
0.05 0.04 0.03 0.03 0.03 0.03 0.03 0.03 0.02 0.02 0.02 0.03 0.04 0.04 0.04 0.03 0.02 0.01 0.01 0.02 0.02 0.02 0.02 0.03 0.04 0.04 0.03 0.03 0.02 0.02 0.02 0.02 0.02 0.01 0.01 0.01 0.02 0.02 0.02 0.03 0.03 0.03 0.02
0.07 0.06 0.05 0.04 0.05 0.04 0.04 0.04 0.02 0.02 0.01 0.03 0.04 0.04 0.03 0.03 0.02 0.01 0.01 0.02 0.02 0.02 0.02 0.02 0.03 0.04 0.04 0.03 0.02 0.02 0.02 0.02 0.02 0.02 0.01 0.01 0.01 0.03 0.03 0.03 0.03 0.02 0.02
0.06 0.05 0.05 0.05 0.05 0.05 0.05 0.05 0.04 0.03 0.02 0.03 0.04 0.04 0.03 0.03 0.02 0.01 0.02 0.02 0.02 0.03 0.03 0.03 0.03 0.03 0.03 0.03 0.02 0.02 0.01 0.01 0.02 0.02 0.01 0.01 0.01 0.02 0.02 0.03 0.02 0.02 0.01
0.03 0.03 0.04 0.04 0.06 0.07 0.06 0.07 0.06 0.05 0.04 0.03 0.04 0.04 0.03 0.03 0.02 0.02 0.02 0.02 0.02 0.03 0.03 0.03 0.03 0.03 0.03 0.03 0.03 0.02 0.02 0.01 0.01 0.01 0.01 0.01 0.01 0.01 0.02 0.03 0.03 0.02 0.02
0.02 0.03 0.04 0.05 0.07 0.08 0.08 0.08 0.08 0.07 0.05 0.04 0.04 0.04 0.03 0.03 0.03 0.02 0.02 0.03 0.03 0.03 0.04 0.04 0.04 0.04 0.03 0.03 0.03 0.02 0.02 0.02 0.02 0.02 0.01 0.01 0.01 0.01 0.02 0.02 0.03 0.03 0.02
0.02 0.02 0.03 0.04 0.06 0.07 0.07 0.07 0.08 0.07 0.05 0.04 0.04 0.04 0.03 0.03 0.04 0.04 0.03 0.03 0.03 0.03 0.03 0.03 0.03 0.03 0.03 0.03 0.03 0.02 0.02 0.02 0.02 0.02 0.02 0.02 0.01 0.01 0.02 0.02 0.03 0.04 0.03
0.02 0.02 0.02 0.03 0.05 0.07 0.06 0.07 0.08 0.07 0.06 0.05 0.05 0.04 0.03 0.04 0.04 0.04 0.03 0.02 0.02 0.03 0.03 0.03 0.03 0.02 0.02 0.02 0.02 0.02 0.02 0.02 0.02 0.02 0.02 0.02 0.02 0.02 0.02 0.03 0.03 0.03 0.03
0.02 0.02 0.02 0.03 0.04 0.06 0.06 0.06 0.06 0.06 0.05 0.05 0.05 0.04 0.04 0.04 0.04 0.03 0.03 0.02 0.02 0.03 0.03 0.03 0.03 0.03 0.03 0.03 0.02 0.02 0.02 0.02 0.02 0.02 0.02 0.02 0.02 0.02 0.02 0.03 0.03 0.03 0.03
0.02 0.03 0.03 0.02 0.03 0.04 0.05 0.05 0.06 0.05 0.06 0.06 0.05 0.04 0.04 0.04 0.04 0.03 0.03 0.02 0.03 0.02 0.02 0.03 0.03 0.03 0.03 0.03 0.02 0.02 0.02 0.02 0.02 0.02 0.03 0.03 0.03 0.02 0.02 0.03 0.03 0.04 0.04
0.05 0.04 0.03 0.03 0.02 0.03 0.03 0.04 0.04 0.04 0.04 0.05 0.05 0.04 0.03 0.03 0.04 0.04 0.04 0.03 0.03 0.03 0.03 0.03 0.03 0.03 0.03 0.03 0.03 0.03 0.03 0.02 0.02 0.01 0.01 0.02 0.02 0.02 0.03 0.03 0.03 0.04 0.04
0.04 0.04 0.03 0.03 0.03 0.03 0.03 0.03 0.02 0.02 0.03 0.03 0.03 0.03 0.03 0.03 0.03 0.03 0.04 0.04 0.04 0.03 0.03 0.03 0.02 0.02 0.02 0.03 0.03 0.03 0.03 0.02 0.02 0.02 0.02 0.01 0.01 0.02 0.02 0.02 0.03 0.03 0.03
0.04 0.04 0.04 0.03 0.03 0.03 0.02 0.02 0.02 0.02 0.02 0.02 0.03 0.03 0.03 0.04 0.03 0.03 0.03 0.04 0.03 0.03 0.03 0.03 0.02 0.02 0.02 0.02 0.02 0.02 0.02 0.02 0.02 0.03 0.03 0.02 0.02 0.02 0.03 0.03 0.03 0.03 0.03
0.03 0.03 0.03 0.04 0.04 0.03 0.02 0.02 0.02 0.02 0.02 0.03 0.03 0.03 0.04 0.04 0.04 0.03 0.03 0.03 0.02 0.02 0.02 0.02 0.02 0.02 0.02 0.01 0.02 0.02 0.02 0.02 0.03 0.03 0.03 0.03 0.02 0.02 0.02 0.02 0.02 0.02 0.02
0.02 0.02 0.02 0.03 0.03 0.03 0.02 0.02 0.02 0.02 0.02 0.03 0.03 0.03 0.03 0.03 0.03 0.02 0.02 0.02 0.02 0.01 0.01 0.01 0.01 0.01 0.01 0.01 0.01 0.01 0.01 0.02 0.02 0.02 0.02 0.02 0.02 0.02 0.02 0.02 0.02 0.02 0.02
0.02 0.02 0.02 0.01 0.01 0.01 0.02 0.02 0.02 0.02 0.02 0.02 0.02 0.02 0.02 0.03 0.03 0.03 0.03 0.02 0.02 0.02 0.02 0.01 0.01 0.01 0.01 0.01 0.01 0.02 0.02 0.02 0.02 0.02 0.02 0.02 0.03 0.03 0.03 0.02 0.02 0.02 0.02
0.01 0.01 0.01 0.01 0.01 0.01 0.01 0.02 0.02 0.02 0.02 0.02 0.02 0.02 0.02 0.02 0.03 0.03 0.03 0.02 0.02 0.02 0.02 0.02 0.02 0.02 0.02 0.02 0.02 0.02 0.03 0.03 0.03 0.03 0.03 0.02 0.02 0.02 0.02 0.03 0.03 0.03 0.03
0.01 0.01 0.01 0.01 0.01 0.01 0.01 0.01 0.02 0.02 0.03 0.03 0.02 0.02 0.02 0.02 0.02 0.02 0.02 0.02 0.01 0.02 0.01 0.01 0.01 0.01 0.01 0.02 0.02 0.02 0.02 0.02 0.02 0.02 0.02 0.02 0.02 0.02 0.02 0.02 0.03 0.03 0.04
0.01 0.01 0.01 0.01 0.01 0.01 0.01 0.01 0.01 0.01 0.02 0.02 0.02 0.02 0.02 0.02 0.01 0.01 0.01 0.01 0.01 0.01 0.01 0.01 0.01 0.01 0.01 0.01 0.01 0.01 0.01 0.01 0.02 0.02 0.02 0.02 0.02 0.03 0.03 0.02 0.03 0.03 0.04
0.01 0.01 0.01 0.01 0.01 0.01 0.01 0.01 0.01 0.01 0.01 0.01 0.02 0.02 0.02 0.01 0.01 0.01 0.01 0.01 0.01 0.01 0.01 0.01 0.01 0.01 0.01 0.01 0.02 0.01 0.01 0.01 0.01 0.01 0.02 0.02 0.02 0.03 0.03 0.03 0.03 0.04 0.05
0.01 0.01 0.01 0.01 0.01 0.01 0.01 0.01 0.01 0.01 0.01 0.01 0.01 0.01 0.01 0.01 0.01 0.01 0.01 0.01 0.01 0.01 0.01 0.01 0.01 0.01 0.01 0.01 0.01 0.01 0.01 0.01 0.01 0.01 0.02 0.02 0.02 0.03 0.04 0.04 0.05 0.05 0.05
0.01 0.01 0.01 0.01 0.01 0.01 0.01 0.01 0.01 0.01 0.01 0.01 0.01 0.01 0.01 0.01 0.01 0.01 0.01 0.01 0.01 0.01 0.01 0.01 0.01 0.01 0.01 0.01 0.01 0.01 0.01 0.01 0.01 0.01 0.02 0.02 0.02 0.03 0.04 0.05 0.05 0.04 0.04
0.01 0.01 0.01 0.01 0.01 0.01 0.01 0.01 0.01 0.01 0.01 0.01 0.01 0.01 0.01 0.01 0.01 0.01 0.01 0.01 0.01 0.01 0.01 0.02 0.02 0.02 0.02 0.02 0.02 0.02 0.02 0.02 0.02 0.02 0.02 0.02 0.03 0.04 0.05 0.05 0.04 0.03 0.03
0.01 0.01 0.01 0.01 0.01 0.01 0.01 0.01 0.01 0.01 0.01 0.01 0.01 0.01 0.01 0.01 0.01 0.01 0.01 0.01 0.01 0.01 0.01 0.01 0.02 0.02 0.02 0.02 0.03 0.03 0.03 0.03 0.03 0.03 0.03 0.03 0.04 0.04 0.03 0.03 0.02 0.02 0.02
0.01 0.01 0.01 0.01 0.01 0.01 0.01 0.01 0.01 0.01 0.01 0.01 0.01 0.01 0.01 0.01 0.01 0.01 0.01 0.01 0.01 0.01 0.01 0.02 0.02 0.02 0.03 0.03 0.03 0.03 0.04 0.04 0.03 0.03 0.03 0.03 0.03 0.02 0.02 0.01 0.01 0.01 0.02
0.01 0.01 0.01 0.01 0.01 0.01 0.01 0.01 0.01 0.01 0.01 0.01 0.01 0.01 0.01 0.01 0.01 0.01 0.01 0.01 0.01 0.01 0.02 0.02 0.02 0.02 0.02 0.03 0.03 0.03 0.03 0.03 0.02 0.02 0.02 0.02 0.02 0.01 0.01 0.01 0.01 0.01 0.01
0.01 0.01 0.01 0.01 0.01 0.01 0.01 0.01 0.01 0.01 0.01 0.01 0.01 0.01 0.01 0.01 0.01 0.01 0.01 0.01 0.01 0.02 0.02 0.02 0.02 0.02 0.02 0.02 0.02 0.02 0.02 0.02 0.02 0.02 0.03 0.02 0.02 0.01 0.01 0.01 0.01 0.01 0.01
MSLP
1010.10 1010.77 1011.44 1012.07 1012.59 1013.01 1013.32 1013.55 1013.71 1013.86 1014.00 1014.14 1014.28 1014.40 1014.48 1014.52 1014.49 1014.40 1014.28 1014.15 1014.03 1013.94 1013.89 1013.89 1013.91 1013.94 1013.94 1013.89 1013.76 1013.57 1013.30 1012.98 1012.63 1012.27 1011.93 1011.65 1011.45 1011.34 1011.36 1011.50 1011.77 1012.18 1012.73
1010.22 1010.90 1011.58 1012.21 1012.75 1013.19 1013.52 1013.76 1013.93 1014.06 1014.18 1014.28 1014.36 1014.43 1014.45 1014.43 1014.35 1014.22 1014.07 1013.91 1013.78 1013.68 1013.63 1013.63 1013.67 1013.72 1013.75 1013.75 1013.68 1013.54 1013.33 1013.06 1012.74 1012.40 1012.08 1011.79 1011.57 1011.44 1011.43 1011.54 1011.80 1012.19 1012.72
1010.38 1011.07 1011.76 1012.40 1012.96 1013.41 1013.75 1014.00 1014.18 1014.30 1014.39 1014.46 1014.50 1014.51 1014.49 1014.41 1014.29 1014.13 1013.95 1013.77 1013.62 1013.50 1013.44 1013.43 1013.46 1013.50 1013.54 1013.55 1013.50 1013.38 1013.19 1012.94 1012.65 1012.33 1012.01 1011.74 1011.53 1011.42 1011.42 1011.55 1011.83 1012.24 1012.79
1010.51 1011.22 1011.92 1012.58 1013.15 1013.61 1013.97 1014.23 1014.41 1014.53 1014.61 1014.66 1014.67 1014.66 1014.60 1014.50 1014.35 1014.17 1013.98 1013.78 1013.60 1013.47 1013.38 1013.34 1013.33 1013.34 1013.34 1013.31 1013.22 1013.08 1012.86 1012.59 1012.29 1011.96 1011.66 1011.40 1011.23 1011.16 1011.22 1011.42 1011.77 1012.25 1012.85
1010.56 1011.29 1012.00 1012.67 1013.25 1013.73 1014.10 1014.38 1014.58 1014.71 1014.80 1014.85 1014.87 1014.84 1014.78 1014.67 1014.52 1014.34 1014.14 1013.94 1013.75 1013.59 1013.47 1013.38 1013.31 1013.24 1013.16 1013.04 1012.87 1012.63 1012.34 1012.00 1011.63 1011.27 1010.96 1010.72 1010.59 1010.59 1010.74 1011.06 1011.52 1012.12 1012.83
1010.49 1011.23 1011.95 1012.63 1013.22 1013.71 1014.11 1014.42 1014.65 1014.82 1014.94 1015.02 1015.05 1015.05 1015.00 1014.91 1014.78 1014.61 1014.42 1014.22 1014.02 1013.84 1013.68 1013.53 1013.38 1013.21 1013.01 1012.76 1012.44 1012.07 1011.64 1011.18 1010.71 1010.28 1009.92 1009.69 1009.60 1009.68 1009.95 1010.40 1011.01 1011.77 1012.63
1010.29 1011.03 1011.76 1012.44 1013.04 1013.56 1013.99 1014.34 1014.62 1014.85 1015.02 1015.14 1015.22 1015.26 1015.24 1015.18 1015.07 1014.93 1014.76 1014.56 1014.37 1014.16 1013.96 1013.74 1013.50 1013.22 1012.88 1012.47 1011.99 1011.43 1010.83 1010.21 1009.61 1009.07 1008.65 1008.39 1008.32 1008.48 1008.86 1009.45 1010.23 1011.17 1012.20
1009.98 1010.72 1011.44 1012.13 1012.75 1013.30 1013.77 1014.18 1014.52 1014.81 1015.05 1015.23 1015.37 1015.45 1015.47 1015.45 1015.37 1015.24 1015.09 1014.90 1014.70 1014.48 1014.24 1013.97 1013.64 1013.25 1012.78 1012.21 1011.55 1010.81 1010.02 1009.22 1008.46 1007.79 1007.28 1006.97 1006.91 1007.11 1007.58 1008.30 1009.23 1010.33 1011.53
1009.62 1010.35 1011.07 1011.76 1012.40 1012.99 1013.51 1013.98 1014.40 1014.76 1015.06 1015.31 1015.50 1015.62 1015.68 1015.67 1015.61 1015.51 1015.36 1015.18 1014.98 1014.75 1014.49 1014.17 1013.79 1013.31 1012.72 1012.02 1011.21 1010.31 1009.35 1008.38 1007.46 1006.66 1006.04 1005.66 1005.56 1005.77 1006.28 1007.08 1008.13 1009.36 1010.70
1009.28 1010.00 1010.71 1011.41 1012.07 1012.69 1013.27 1013.81 1014.29 1014.72 1015.09 1015.39 1015.62 1015.77 1015.85 1015.85 1015.80 1015.70 1015.55 1015.38 1015.18 1014.95 1014.68 1014.35 1013.93 1013.40 1012.76 1011.97 1011.05 1010.03 1008.95 1007.84 1006.79 1005.87 1005.14 1004.67 1004.51 1004.68 1005.19 1006.00 1007.09 1008.38 1009.80
1009.03 1009.73 1010.43 1011.13 1011.82 1012.47 1013.10 1013.69 1014.23 1014.72 1015.14 1015.48 1015.74 1015.91 1015.99 1015.99 1015.94 1015.83 1015.68 1015.51 1015.32 1015.10 1014.84 1014.52 1014.11 1013.58 1012.92 1012.11 1011.15 1010.08 1008.92 1007.74 1006.59 1005.57 1004.74 1004.18 1003.93 1004.02 1004.46 1005.23 1006.28 1007.56 1008.98
1008.90 1009.58 1010.27 1010.97 1011.67 1012.35 1013.01 1013.64 1014.23 1014.76 1015.22 1015.59 1015.86 1016.03 1016.11 1016.11 1016.04 1015.92 1015.78 1015.61 1015.44 1015.24 1015.02 1014.74 1014.37 1013.89 1013.27 1012.49 1011.55 1010.49 1009.33 1008.12 1006.94 1005.86 1004.95 1004.30 1003.94 1003.92 1004.24 1004.89 1005.84 1007.01 1008.36
1008.90 1009.56 1010.24 1010.93 1011.62 1012.32 1013.00 1013.66 1014.27 1014.83 1015.31 1015.69 1015.97 1016.15 1016.22 1016.22 1016.14 1016.03 1015.88 1015.74 1015.59 1015.43 1015.26 1015.04 1014.74 1014.34 1013.79 1013.10 1012.25 1011.25 1010.14 1008.98 1007.81 1006.72 1005.77 1005.04 1004.57 1004.41 1004.58 1005.06 1005.83 1006.83 1008.02
1008.99 1009.63 1010.29 1010.97 1011.65 1012.34 1013.03 1013.69 1014.31 1014.88 1015.37 1015.77 1016.06 1016.24 1016.32 1016.32 1016.26 1016.16 1016.04 1015.93 1015.82 1015.71 1015.60 1015.45 1015.23 1014.92 1014.49 1013.91 1013.17 1012.29 1011.29 1010.21 1009.11 1008.04 1007.08 1006.30 1005.74 1005.44 1005.43 1005.71 1006.25 1007.03 1008.00
1009.14 1009.76 1010.39 1011.04 1011.70 1012.37 1013.05 1013.70 1014.32 1014.89 1015.39 1015.79 1016.10 1016.30 1016.41 1016.44 1016.41 1016.35 1016.27 1016.20 1016.14 1016.09 1016.04 1015.96 1015.83 1015.61 1015.29 1014.83 1014.23 1013.48 1012.62 1011.66 1010.66 1009.66 1008.73 1007.92 1007.28 1006.86 1006.68 1006.74 1007.05 1007.58 1008.30
1009.30 1009.89 1010.49 1011.11 1011.74 1012.38 1013.03 1013.67 1014.28 1014.84 1015.34 1015.76 1016.09 1016.33 1016.48 1016.56 1016.59 1016.58 1016.56 1016.55 1016.54 1016.55 1016.55 1016.53 1016.46 1016.33 1016.10 1015.76 1015.28 1014.68 1013.96 1013.15 1012.27 1011.37 1010.50 1009.70 1009.02 1008.50 1008.16 1008.03 1008.11 1008.38 1008.84
1009.41 1009.98 1010.55 1011.14 1011.74 1012.35 1012.97 1013.58 1014.17 1014.73 1015.24 1015.68 1016.04 1016.32 1016.53 1016.68 1016.77 1016.84 1016.89 1016.93 1016.98 1017.03 1017.07 1017.09 1017.07 1017.00 1016.84 1016.59 1016.23 1015.76 1015.18 1014.51 1013.77 1012.99 1012.20 1011.44 1010.75 1010.17 1009.72 1009.42 1009.29 1009.34 1009.55
1009.48 1010.02 1010.56 1011.12 1011.69 1012.28 1012.87 1013.46 1014.04 1014.59 1015.10 1015.56 1015.96 1016.29 1016.56 1016.78 1016.95 1017.09 1017.20 1017.31 1017.39 1017.48 1017.54 1017.59 1017.59 1017.55 1017.45 1017.26 1016.99 1016.64 1016.19 1015.66 1015.05 1014.40 1013.71 1013.02 1012.35 1011.74 1011.21 1010.78 1010.49 1010.34 1010.35
1009.49 1010.01 1010.54 1011.08 1011.63 1012.20 1012.77 1013.35 1013.91 1014.46 1014.97 1015.45 1015.87 1016.25 1016.57 1016.85 1017.09 1017.29 1017.47 1017.62 1017.74 1017.84 1017.92 1017.97 1017.98 1017.95 1017.88 1017.74 1017.55 1017.28 1016.95 1016.54 1016.07 1015.54 1014.97 1014.36 1013.73 1013.13 1012.55 1012.05 1011.63 1011.34 1011.17
1009.47 1009.98 1010.50 1011.03 1011.58 1012.14 1012.70 1013.27 1013.82 1014.36 1014.87 1015.35 1015.79 1016.19 1016.55 1016.88 1017.17 1017.42 1017.64 1017.83 1017.98 1018.09 1018.18 1018.22 1018.23 1018.21 1018.15 1018.05 1017.91 1017.72 1017.48 1017.19 1016.85 1016.44 1015.97 1015.45 1014.89 1014.31 1013.73 1013.17 1012.68 1012.27 1011.97
1009.46 1009.95 1010.47 1011.00 1011.56 1012.12 1012.68 1013.23 1013.77 1014.29 1014.79 1015.26 1015.70 1016.11 1016.50 1016.85 1017.17 1017.46 1017.71 1017.92 1018.09 1018.22 1018.30 1018.35 1018.36 1018.34 1018.30 1018.23 1018.13 1018.01 1017.86 1017.67 1017.43 1017.13 1016.76 1016.33 1015.84 1015.30 1014.73 1014.16 1013.61 1013.13 1012.73
1009.47 1009.95 1010.47 1011.01 1011.57 1012.13 1012.69 1013.23 1013.75 1014.25 1014.73 1015.17 1015.60 1016.00 1016.38 1016.74 1017.08 1017.38 1017.66 1017.89 1018.08 1018.22 1018.32 1018.38 1018.40 1018.39 1018.37 1018.33 1018.28 1018.21 1018.13 1018.02 1017.87 1017.66 1017.39 1017.04 1016.61 1016.12 1015.58 1015.00 1014.43 1013.90 1013.44
1009.54 1010.00 1010.52 1011.06 1011.62 1012.18 1012.72 1013.24 1013.74 1014.20 1014.64 1015.05 1015.44 1015.82 1016.19 1016.54 1016.88 1017.20 1017.49 1017.75 1017.96 1018.13 1018.25 1018.33 1018.38 1018.40 1018.40 1018.39 1018.38 1018.37 1018.34 1018.29 1018.21 1018.08 1017.88 1017.60 1017.23 1016.79 1016.28 1015.72 1015.14 1014.59 1014.08
1009.67 1010.11 1010.61 1011.14 1011.69 1012.22 1012.74 1013.23 1013.68 1014.10 1014.49 1014.86 1015.21 1015.56 1015.91 1016.25 1016.59 1016.93 1017.24 1017.53 1017.77 1017.98 1018.14 1018.25 1018.33 1018.38 1018.42 1018.44 1018.46 1018.48 1018.50 1018.49 1018.46 1018.38 1018.23 1018.01 1017.70 1017.30 1016.83 1016.30 1015.74 1015.18 1014.66
1009.88 1010.29 1010.75 1011.25 1011.75 1012.25 1012.72 1013.16 1013.56 1013.93 1014.27 1014.59 1014.90 1015.22 1015.55 1015.89 1016.24 1016.59 1016.94 1017.26 1017.55 1017.79 1017.99 1018.15 1018.27 1018.35 1018.41 1018.46 1018.50 1018.54 1018.58 1018.60 1018.59 1018.55 1018.44 1018.26 1018.00 1017.65 1017.23 1016.74 1016.21 1015.67 1015.15
1010.16 1010.52 1010.93 1011.37 1011.82 1012.25 1012.66 1013.04 1013.38 1013.69 1013.98 1014.25 1014.54 1014.84 1015.16 1015.50 1015.87 1016.24 1016.62 1016.98 1017.31 1017.60 1017.84 1018.03 1018.18 1018.29 1018.36 1018.42 1018.47 1018.51 1018.54 1018.57 1018.57 1018.54 1018.47 1018.33 1018.11 1017.82 1017.46 1017.03 1016.55 1016.06 1015.56
Thickness
5484 5485 5486 5488 5489 5491 5491 5492 5494 5495 5496 5497 5497 5497 5497 5496 5497 5497 5497 5496 5495 5494 5494 5493 5493 5491 5491 5490 5489 5489 5488 5487 5487 5490 5488 5487 5485 5485 5485 5485 5485 5485 5485
5472 5473 5475 5476 5478 5479 5480 5482 5483 5484 5485 5486 5486 5486 5486 5485 5486 5486 5486 5485 5485 5484 5483 5482 5481 5480 5480 5478 5477 5477 5476 5475 5474 5475 5476 5474 5473 5472 5472 5472 5473 5473 5474
5461 5462 5463 5465 5467 5468 5469 5470 5472 5473 5474 5474 5475 5474 5474 5474 5474 5475 5475 5474 5474 5473 5472 5471 5470 5469 5468 5467 5466 5466 5466 5465 5463 5462 5463 5462 5461 5460 5460 5460 5461 5461 5462
5451 5452 5452 5453 5455 5456 5457 5458 5459 5461 5461 5462 5462 5462 5462 5463 5463 5463 5463 5463 5462 5462 5461 5460 5459 5458 5457 5456 5456 5456 5455 5453 5451 5450 5451 5450 5449 5449 5448 5448 5449 5450 5451
5440 5440 5441 5442 5444 5444 5445 5446 5447 5448 5449 5449 5449 5450 5450 5450 5451 5451 5451 5451 5451 5450 5449 5448 5447 5447 5447 5446 5446 5446 5445 5442 5441 5440 5439 5439 5439 5438 5437 5438 5438 5439 5441
5428 5429 5430 5431 5432 5432 5433 5434 5435 5436 5436 5437 5437 5437 5437 5438 5439 5440 5440 5440 5439 5439 5438 5437 5437 5436 5436 5435 5435 5436 5435 5433 5431 5430 5430 5429 5429 5428 5428 5428 5428 5428 5431
5418 5419 5419 5420 5420 5420 5421 5422 5422 5422 5423 5424 5424 5424 5424 5425 5426 5427 5427 5427 5427 5427 5426 5426 5426 5426 5425 5424 5424 5424 5423 5423 5423 5422 5421 5420 5420 5420 5420 5421 5420 5420 5422
5409 5409 5409 5409 5409 5409 5409 5409 5409 5410 5410 5411 5411 5412 5412 5413 5414 5415 5416 5416 5416 5416 5416 5415 5415 5414 5413 5413 5413 5412 5412 5412 5412 5413 5413 5413 5413 5413 5413 5413 5413 5413 5415
5399 5398 5398 5398 5398 5397 5397 5397 5397 5398 5398 5398 5399 5401 5401 5401 5402 5404 5405 5404 5405 5405 5406 5405 5404 5404 5404 5403 5402 5402 5402 5402 5403 5404 5405 5406 5406 5406 5406 5406 5405 5405 5407
5390 5389 5389 5388 5388 5387 5387 5387 5387 5387 5387 5388 5390 5391 5391 5391 5392 5393 5394 5394 5395 5395 5395 5395 5394 5394 5394 5393 5392 5392 5393 5393 5394 5395 5397 5398 5398 5399 5399 5398 5398 5397 5399
5381 5380 5379 5379 5378 5378 5378 5378 5378 5379 5379 5379 5380 5380 5381 5381 5383 5384 5385 5385 5385 5385 5385 5385 5385 5385 5384 5384 5384 5385 5386 5386 5386 5387 5389 5390 5390 5391 5391 5391 5391 5391 5391
5373 5372 5371 5370 5370 5370 5370 5370 5370 5370 5370 5369 5370 5370 5371 5372 5374 5375 5377 5377 5376 5376 5376 5376 5376 5376 5376 5377 5377 5379 5379 5379 5379 5379 5380 5382 5383 5383 5384 5385 5385 5385 5386
5365 5364 5363 5362 5362 5361 5362 5362 5362 5361 5360 5361 5361 5362 5362 5364 5365 5367 5367 5368 5368 5368 5369 5369 5369 5368 5368 5369 5370 5371 5371 5371 5371 5372 5372 5374 5375 5376 5377 5377 5378 5379 5380
5357 5356 5355 5355 5355 5354 5354 5354 5353 5352 5351 5352 5353 5353 5354 5355 5356 5357 5357 5358 5360 5361 5361 5361 5361 5361 5361 5362 5362 5362 5362 5363 5364 5364 5365 5366 5367 5368 5369 5369 5370 5371 5372
5349 5349 5348 5348 5347 5346 5346 5345 5345 5344 5344 5345 5345 5345 5347 5348 5349 5350 5351 5352 5353 5354 5354 5354 5354 5354 5354 5354 5354 5354 5355 5355 5356 5357 5358 5358 5359 5360 5361 5362 5363 5364 5364
5342 5341 5341 5340 5340 5340 5339 5338 5338 5338 5339 5339 5340 5340 5341 5342 5343 5344 5345 5346 5347 5348 5348 5347 5347 5347 5346 5346 5346 5346 5347 5348 5349 5350 5350 5351 5352 5353 5355 5356 5356 5357 5358
5334 5333 5333 5333 5333 5332 5331 5331 5330 5331 5331 5332 5333 5334 5336 5337 5338 5339 5339 5340 5341 5342 5340 5340 5340 5340 5340 5340 5340 5340 5341 5341 5342 5344 5345 5345 5346 5348 5349 5350 5351 5351 5353
5327 5327 5327 5325 5325 5324 5324 5324 5324 5324 5325 5325 5326 5328 5330 5331 5332 5333 5334 5335 5334 5334 5333 5333 5334 5334 5334 5334 5335 5335 5335 5336 5337 5338 5339 5340 5341 5342 5344 5345 5346 5346 5348
5321 5320 5320 5319 5318 5318 5318 5318 5318 5318 5319 5319 5320 5322 5324 5325 5327 5328 5328 5328 5328 5327 5327 5327 5327 5328 5328 5329 5329 5329 5330 5331 5332 5333 5334 5335 5336 5338 5339 5341 5341 5343 5343
5316 5316 5315 5314 5313 5313 5313 5313 5313 5314 5314 5315 5316 5317 5318 5320 5320 5321 5322 5322 5322 5321 5321 5322 5322 5323 5324 5324 5325 5325 5326 5327 5327 5328 5330 5331 5333 5334 5335 5337 5337 5338 5340
5310 5310 5310 5309 5308 5308 5308 5308 5309 5309 5310 5311 5311 5313 5315 5314 5315 5315 5316 5316 5316 5316 5316 5317 5318 5319 5320 5320 5321 5321 5322 5323 5324 5325 5326 5328 5330 5331 5332 5333 5334 5335 5337
5305 5305 5305 5304 5304 5304 5304 5305 5305 5305 5306 5307 5307 5309 5310 5310 5310 5310 5311 5311 5311 5311 5312 5312 5313 5314 5315 5316 5317 5318 5319 5320 5321 5322 5324 5325 5327 5328 5329 5330 5331 5332 5333
5301 5301 5301 5301 5301 5301 5301 5301 5301 5302 5302 5303 5303 5304 5305 5305 5305 5305 5305 5306 5306 5307 5308 5308 5309 5310 5311 5312 5314 5315 5316 5317 5318 5319 5321 5322 5324 5325 5326 5327 5328 5329 5330
5297 5297 5297 5296 5297 5297 5297 5297 5297 5298 5298 5299 5299 5299 5300 5300 5300 5300 5301 5301 5302 5302 5303 5303 5304 5306 5307 5309 5310 5312 5313 5315 5316 5317 5319 5320 5321 5322 5323 5324 5325 5326 5327
5294 5293 5293 5293 5293 5293 5293 5293 5293 5294 5294 5294 5294 5295 5295 5295 5296 5296 5297 5297 5298 5298 5299 5300 5301 5303 5304 5306 5307 5309 5311 5313 5314 5316 5317 5318 5319 5320 5321 5322 5323 5324 5325
5290 5290 5290 5290 5289 5289 5289 5289 5289 5289 5289 5289 5290 5290 5290 5291 5291 5292 5293 5293 5294 5295 5296 5297 5299 5300 5302 5304 5305 5307 5309 5311 5313 5314 5315 5317 5317 5318 5319 5320 5320 5321 5322